Location: La Tine
(46.4708°N, 7.0525°E)
Time: 00:59:13
(UTC+00:00)

Meteor 1-24 Rocket - Pass Details

Date: 22 January 2021
Orbit: 791 x 926 km, 81.3° (Epoch: 03 March)

Event Time Altitude Azimuth Distance (km) Brightness Sun altitude
Rises 17:20:23 0° 198° (SSW) 3,310 7.3 -10.2°
Reaches altitude 10° 17:22:48 10° 202° (SSW) 2,371 6.6 -10.6°
Maximum altitude 17:28:05 64° 283° (WNW) 880 4.1 -11.4°
Drops below altitude 10° 17:33:22 10° 5° (N) 2,368 5.8 -12.3°
Sets 17:35:47 0° 9° (N) 3,306 6.5 -12.7°
